[ hide orbit diagram ]
For accurate long-term ephemerides, please instead use our Horizons system.This orbit viewer was implemented using two-body methods, and hence should not be used for determining accurate long-term trajectories (over several years or decades) or planetary encounter circumstances.
Orbital Elements at Epoch 2459200.5 (2020-Dec-17.0) TDB
Reference: JPL 25 (heliocentric ecliptic J2000)
Element | Value | Uncertainty (1-sigma) | Units |
e | .2548307972030712 | 4.5687e-08 | |
a | 2.31500993250491 | 1.0946e-08 | au |
q | 1.725074105871655 | 1.0608e-07 | au |
i | 23.28735372872096 | 5.9725e-06 | deg |
node | 347.9223608834063 | 1.0728e-05 | deg |
peri | 313.6617482979253 | 1.5109e-05 | deg |
M | 103.6417064210824 | 1.1749e-05 | deg |
tp | 2458830.109559786737 (2019-Dec-12.60955979) | 4.1187e-05 | TDB |
period | 1286.553097987695 3.52 | 9.1246e-06 2.498e-08 | d yr |
n | .279817444428122 | 1.9845e-09 | deg/d |
Q | 2.904945759138164 | 1.3735e-08 | au |
|
| | Orbit Determination Parameters
Additional Information
|
[ show covariance matrix ]
Physical Parameter Table
Parameter |
Symbol |
Value |
Units |
Sigma |
Reference |
Notes |
absolute magnitude |
H |
14.26 |
|
n/a |
E2021B10 |
|
|
48010 (2001 BD70) Discovered 2001-Jan-31 by LINEAR at Socorro |
Reference: 20020921/Numbers.arc | Last Updated: 2004-04-19 |
|
[ show close-approach data ]
|